Time,TemperatureF,DewpointF,PressureIn,WindDirection,WindDirectionDegrees,WindSpeedMPH,WindSpeedGustMPH,Humidity,HourlyPrecipIn,Conditions,Clouds,dailyrainin,SoftwareType,DateUTC
2013-05-03 00:00:00,56.0,44.0,30.38,NE,41,3.0,3.0,64,0.00,,,0.00,Wunderground v.1.15,2013-05-03 04:00:00,
2013-05-03 00:05:00,55.9,43.9,30.38,NE,41,2.0,3.0,64,0.00,,,0.00,Wunderground v.1.15,2013-05-03 04:05:00,
2013-05-03 00:10:00,55.8,43.8,30.38,NE,43,2.0,2.0,64,0.00,,,0.00,Wunderground v.1.15,2013-05-03 04:10:00,
2013-05-03 00:20:00,55.7,43.7,30.39,NE,51,2.0,3.0,64,0.00,,,0.00,Wunderground v.1.15,2013-05-03 04:20:00,
2013-05-03 00:25:00,55.7,43.7,30.39,NE,51,2.0,5.0,64,0.00,,,0.00,Wunderground v.1.15,2013-05-03 04:25:00,
2013-05-03 00:30:00,56.0,43.6,30.39,NE,45,2.0,8.0,63,0.00,,,-99.99,WeatherLink 6.0.2,2013-05-03 04:30:00,
2013-05-03 00:40:00,56.6,43.7,30.40,NE,40,5.0,7.0,62,0.00,,,0.00,Wunderground v.1.15,2013-05-03 04:40:00,
2013-05-03 00:50:00,56.6,44.1,30.40,NNE,26,6.0,6.0,63,0.00,,,0.00,Wunderground v.1.15,2013-05-03 04:50:00,
2013-05-03 01:00:00,56.5,43.6,30.40,ENE,64,6.0,6.0,62,0.00,,,0.00,Wunderground v.1.15,2013-05-03 05:00:00,
2013-05-03 01:10:00,56.4,44.0,30.40,NE,48,5.0,5.0,63,0.00,,,0.00,Wunderground v.1.15,2013-05-03 05:10:00,
2013-05-03 01:20:00,56.3,44.3,30.40,ENE,76,6.0,6.0,64,0.00,,,0.00,Wunderground v.1.15,2013-05-03 05:20:00,
2013-05-03 01:25:00,56.1,44.5,30.40,ENE,63,4.0,8.0,65,0.00,,,0.00,Wunderground v.1.15,2013-05-03 05:25:00,
2013-05-03 01:30:00,55.8,44.6,30.40,NE,45,5.0,15.0,66,0.00,,,-99.99,WeatherLink 6.0.2,2013-05-03 05:30:00,
2013-05-03 01:40:00,55.4,45.0,30.40,NNE,33,5.0,5.0,68,0.00,,,0.00,Wunderground v.1.15,2013-05-03 05:40:00,
2013-05-03 01:50:00,55.1,44.7,30.41,East,94,6.0,6.0,68,0.00,,,0.00,Wunderground v.1.15,2013-05-03 05:50:00,
2013-05-03 02:00:00,54.9,44.9,30.41,ENE,76,5.0,9.0,69,0.00,,,0.00,Wunderground v.1.15,2013-05-03 06:00:00,
2013-05-03 02:10:00,54.6,44.6,30.40,NE,36,5.0,6.0,69,0.00,,,0.00,Wunderground v.1.15,2013-05-03 06:10:00,
2013-05-03 02:20:00,54.4,43.7,30.40,NE,42,6.0,6.0,67,0.00,,,0.00,Wunderground v.1.15,2013-05-03 06:20:00,
2013-05-03 02:30:00,54.2,43.1,30.41,East,83,6.0,6.0,66,0.00,,,0.00,Wunderground v.1.15,2013-05-03 06:30:00,
2013-05-03 02:40:00,54.2,42.7,30.41,NNE,27,4.0,4.0,65,0.00,,,0.00,Wunderground v.1.15,2013-05-03 06:40:00,
2013-05-03 02:55:00,54.1,41.4,30.41,NE,35,3.0,3.0,62,0.00,,,0.00,Wunderground v.1.15,2013-05-03 06:55:00,
2013-05-03 03:00:00,54.1,40.9,30.41,NE,45,3.0,9.0,61,0.00,,,-99.99,WeatherLink 6.0.2,2013-05-03 07:00:00,
2013-05-03 03:10:00,54.0,40.4,30.41,NE,53,3.0,7.0,60,0.00,,,0.00,Wunderground v.1.15,2013-05-03 07:10:00,
2013-05-03 03:20:00,53.9,39.9,30.41,ENE,61,4.0,4.0,59,0.00,,,0.00,Wunderground v.1.15,2013-05-03 07:20:00,
2013-05-03 03:30:00,53.7,39.3,30.42,ENE,72,3.0,4.0,58,0.00,,,0.00,Wunderground v.1.15,2013-05-03 07:30:00,
2013-05-03 03:40:00,53.4,39.0,30.42,ENE,57,2.0,2.0,58,0.00,,,0.00,Wunderground v.1.15,2013-05-03 07:40:00,
2013-05-03 03:50:00,53.2,38.4,30.42,ENE,61,3.0,3.0,57,0.00,,,0.00,Wunderground v.1.15,2013-05-03 07:50:00,
2013-05-03 04:00:00,53.0,38.6,30.42,NE,54,2.0,2.0,58,0.00,,,0.00,Wunderground v.1.15,2013-05-03 08:00:00,
2013-05-03 04:10:00,52.8,38.4,30.42,NE,36,2.0,2.0,58,0.00,,,0.00,Wunderground v.1.15,2013-05-03 08:10:00,
2013-05-03 04:20:00,52.6,38.7,30.42,NNE,32,1.0,1.0,59,0.00,,,0.00,Wunderground v.1.15,2013-05-03 08:20:00,
2013-05-03 04:30:00,52.2,38.7,30.43,NE,50,2.0,2.0,60,0.00,,,0.00,Wunderground v.1.15,2013-05-03 08:30:00,
2013-05-03 04:40:00,51.9,38.9,30.43,NE,45,1.0,1.0,61,0.00,,,0.00,Wunderground v.1.15,2013-05-03 08:40:00,
2013-05-03 04:50:00,51.3,39.1,30.43,NE,45,0.0,0.0,63,0.00,,,0.00,Wunderground v.1.15,2013-05-03 08:50:00,
2013-05-03 05:00:00,50.5,39.2,30.43,NE,45,0.0,3.0,65,0.00,,,-99.99,WeatherLink 6.0.2,2013-05-03 09:00:00,
2013-05-03 05:10:00,49.7,39.2,30.43,NE,45,0.0,0.0,67,0.00,,,0.00,Wunderground v.1.15,2013-05-03 09:10:00,
2013-05-03 05:20:00,48.8,39.4,30.44,NE,45,0.0,0.0,70,0.00,,,0.00,Wunderground v.1.15,2013-05-03 09:20:00,
2013-05-03 05:30:00,48.3,39.3,30.44,NE,45,0.0,0.0,71,0.00,,,0.00,Wunderground v.1.15,2013-05-03 09:30:00,
2013-05-03 05:40:00,48.3,39.7,30.44,NE,45,0.0,0.0,72,0.00,,,0.00,Wunderground v.1.15,2013-05-03 09:40:00,
2013-05-03 05:50:00,48.9,39.9,30.44,NE,45,0.0,0.0,71,0.00,,,0.00,Wunderground v.1.15,2013-05-03 09:50:00,
2013-05-03 06:00:00,49.1,40.1,30.44,NE,45,0.0,0.0,71,0.00,,,0.00,Wunderground v.1.15,2013-05-03 10:00:00,
2013-05-03 06:10:00,49.2,40.6,30.45,NE,45,0.0,0.0,72,0.00,,,0.00,Wunderground v.1.15,2013-05-03 10:10:00,
2013-05-03 06:20:00,49.1,40.8,30.45,NE,45,0.0,0.0,73,0.00,,,0.00,Wunderground v.1.15,2013-05-03 10:20:00,
2013-05-03 06:30:00,49.0,40.7,30.45,NE,45,0.0,1.0,73,0.00,,,0.00,Wunderground v.1.15,2013-05-03 10:30:00,
2013-05-03 06:40:00,49.6,40.2,30.45,NE,45,1.0,2.0,70,0.00,,,0.00,Wunderground v.1.15,2013-05-03 10:40:00,
2013-05-03 06:50:00,50.4,40.2,30.45,NE,46,1.0,1.0,68,0.00,,,0.00,Wunderground v.1.15,2013-05-03 10:50:00,
2013-05-03 07:00:00,51.2,39.8,30.45,NE,41,2.0,2.0,65,0.00,,,0.00,Wunderground v.1.15,2013-05-03 11:00:00,
2013-05-03 07:10:00,51.9,38.4,30.45,NNE,24,3.0,4.0,60,0.00,,,0.00,Wunderground v.1.15,2013-05-03 11:10:00,
2013-05-03 07:20:00,52.6,37.3,30.45,NNE,28,5.0,5.0,56,0.00,,,0.00,Wunderground v.1.15,2013-05-03 11:20:00,
2013-05-03 07:30:00,52.9,36.7,30.45,ENE,61,6.0,7.0,54,0.00,,,0.00,Wunderground v.1.15,2013-05-03 11:30:00,
2013-05-03 07:40:00,53.3,36.6,30.45,NE,40,5.0,5.0,53,0.00,,,0.00,Wunderground v.1.15,2013-05-03 11:40:00,
2013-05-03 07:50:00,53.6,36.9,30.45,NE,34,5.0,6.0,53,0.00,,,0.00,Wunderground v.1.15,2013-05-03 11:50:00,
2013-05-03 08:00:00,53.9,36.2,30.45,NE,45,5.0,12.0,51,0.00,,,-99.99,WeatherLink 6.0.2,2013-05-03 12:00:00,
2013-05-03 08:10:00,54.1,35.9,30.45,NE,40,7.0,10.0,50,0.00,,,0.00,Wunderground v.1.15,2013-05-03 12:10:00,
2013-05-03 08:20:00,54.6,36.3,30.45,East,81,6.0,8.0,50,0.00,,,0.00,Wunderground v.1.15,2013-05-03 12:20:00,
2013-05-03 08:30:00,54.9,36.1,30.45,NE,49,7.0,7.0,49,0.00,,,0.00,Wunderground v.1.15,2013-05-03 12:30:00,
2013-05-03 08:40:00,55.5,35.6,30.45,NE,41,7.0,7.0,47,0.00,,,0.00,Wunderground v.1.15,2013-05-03 12:40:00,
2013-05-03 08:50:00,55.9,35.4,30.45,East,81,6.0,10.0,46,0.00,,,0.00,Wunderground v.1.15,2013-05-03 12:50:00,
2013-05-03 09:00:00,56.1,34.5,30.45,NE,45,6.0,12.0,44,0.00,,,-99.99,WeatherLink 6.0.2,2013-05-03 13:00:00,
2013-05-03 09:10:00,56.4,35.3,30.45,NNE,30,6.0,7.0,45,0.00,,,0.00,Wunderground v.1.15,2013-05-03 13:10:00,
2013-05-03 09:20:00,56.8,35.1,30.45,ENE,71,4.0,4.0,44,0.00,,,0.00,Wunderground v.1.15,2013-05-03 13:20:00,
2013-05-03 09:30:00,57.1,34.8,30.45,ENE,61,7.0,10.0,43,0.00,,,0.00,Wunderground v.1.15,2013-05-03 13:30:00,
2013-05-03 09:40:00,57.1,34.8,30.45,NE,47,0.0,0.0,43,0.00,,,0.00,Wunderground v.1.15,2013-05-03 13:40:00,
2013-05-03 09:50:00,-999.9,-99.9,30.45,North,32767,-999.0,0.0,255,-99.99,,,0.00,Wunderground v.1.15,2013-05-03 13:50:00,
2013-05-03 10:00:00,-999.9,-99.9,30.45,North,32767,-999.0,0.0,255,-99.99,,,0.00,Wunderground v.1.15,2013-05-03 14:00:00,
2013-05-03 10:10:00,-999.9,-99.9,30.45,North,32767,-999.0,0.0,255,-99.99,,,0.00,Wunderground v.1.15,2013-05-03 14:10:00,
2013-05-03 10:20:00,59.2,36.1,30.44,NE,52,3.0,3.0,42,0.00,,,0.00,Wunderground v.1.15,2013-05-03 14:20:00,
2013-05-03 10:30:00,59.0,35.3,30.44,North,1,5.0,5.0,41,0.00,,,0.00,Wunderground v.1.15,2013-05-03 14:30:00,
2013-05-03 10:40:00,59.4,35.7,30.45,ESE,108,6.0,7.0,41,0.00,,,0.00,Wunderground v.1.15,2013-05-03 14:40:00,
2013-05-03 10:50:00,59.5,35.1,30.44,NNE,28,6.0,6.0,40,0.00,,,0.00,Wunderground v.1.15,2013-05-03 14:50:00,
2013-05-03 11:00:00,60.0,35.6,30.44,East,90,5.0,13.0,40,0.00,,,-99.99,WeatherLink 6.0.2,2013-05-03 15:00:00,
2013-05-03 11:10:00,60.3,35.9,30.44,NNE,26,4.0,4.0,40,0.00,,,0.00,Wunderground v.1.15,2013-05-03 15:10:00,
2013-05-03 11:20:00,60.5,37.3,30.44,East,84,3.0,8.0,42,0.00,,,0.00,Wunderground v.1.15,2013-05-03 15:20:00,
2013-05-03 11:30:00,60.8,38.1,30.44,ESE,112,3.0,10.0,43,0.00,,,-99.99,WeatherLink 6.0.2,2013-05-03 15:30:00,
2013-05-03 11:40:00,60.7,38.6,30.43,SE,130,3.0,3.0,44,0.00,,,0.00,Wunderground v.1.15,2013-05-03 15:40:00,
2013-05-03 11:50:00,60.4,38.9,30.43,South,184,4.0,4.0,45,0.00,,,0.00,Wunderground v.1.15,2013-05-03 15:50:00,
2013-05-03 12:00:00,60.9,38.8,30.43,South,180,4.0,11.0,44,0.00,,,-99.99,WeatherLink 6.0.2,2013-05-03 16:00:00,
2013-05-03 12:10:00,61.1,39.0,30.42,SSW,196,4.0,4.0,44,0.00,,,0.00,Wunderground v.1.15,2013-05-03 16:10:00,
2013-05-03 12:20:00,61.6,39.5,30.42,NE,37,3.0,8.0,44,0.00,,,0.00,Wunderground v.1.15,2013-05-03 16:20:00,
2013-05-03 12:30:00,62.1,39.9,30.41,SE,135,3.0,12.0,44,0.00,,,-99.99,WeatherLink 6.0.2,2013-05-03 16:30:00,
2013-05-03 12:40:00,62.1,39.3,30.41,SSW,213,4.0,4.0,43,0.00,,,0.00,Wunderground v.1.15,2013-05-03 16:40:00,
2013-05-03 12:50:00,62.3,39.5,30.41,SSE,149,3.0,3.0,43,0.00,,,0.00,Wunderground v.1.15,2013-05-03 16:50:00,
2013-05-03 13:00:00,62.5,39.7,30.41,SSE,149,4.0,4.0,43,0.00,,,0.00,Wunderground v.1.15,2013-05-03 17:00:00,
2013-05-03 13:10:00,62.9,38.8,30.40,South,173,4.0,4.0,41,0.00,,,0.00,Wunderground v.1.15,2013-05-03 17:10:00,
2013-05-03 13:20:00,63.1,39.6,30.40,ENE,65,4.0,5.0,42,0.00,,,0.00,Wunderground v.1.15,2013-05-03 17:20:00,
2013-05-03 13:30:00,63.1,39.6,30.40,East,87,4.0,4.0,42,0.00,,,0.00,Wunderground v.1.15,2013-05-03 17:30:00,
2013-05-03 13:40:00,63.6,39.5,30.40,ESE,122,5.0,5.0,41,0.00,,,0.00,Wunderground v.1.15,2013-05-03 17:40:00,
2013-05-03 13:50:00,63.6,39.5,30.40,ENE,78,3.0,3.0,41,0.00,,,0.00,Wunderground v.1.15,2013-05-03 17:50:00,
2013-05-03 14:00:00,63.4,39.3,30.40,ENE,76,3.0,3.0,41,0.00,,,0.00,Wunderground v.1.15,2013-05-03 18:00:00,
2013-05-03 14:10:00,62.8,39.4,30.39,ESE,118,5.0,5.0,42,0.00,,,0.00,Wunderground v.1.15,2013-05-03 18:10:00,
2013-05-03 14:20:00,63.5,39.4,30.39,SSE,151,4.0,4.0,41,0.00,,,0.00,Wunderground v.1.15,2013-05-03 18:20:00,
2013-05-03 14:30:00,64.5,40.3,30.39,East,96,4.0,5.0,41,0.00,,,0.00,Wunderground v.1.15,2013-05-03 18:30:00,
2013-05-03 14:40:00,64.5,39.6,30.38,East,95,3.0,6.0,40,0.00,,,0.00,Wunderground v.1.15,2013-05-03 18:40:00,
2013-05-03 14:50:00,64.1,39.9,30.38,South,169,3.0,3.0,41,0.00,,,0.00,Wunderground v.1.15,2013-05-03 18:50:00,
2013-05-03 15:00:00,64.2,40.0,30.38,East,90,4.0,10.0,41,0.00,,,-99.99,WeatherLink 6.0.2,2013-05-03 19:00:00,
2013-05-03 15:10:00,64.9,40.0,30.38,SSE,148,3.0,3.0,40,0.00,,,0.00,Wunderground v.1.15,2013-05-03 19:10:00,
2013-05-03 15:20:00,64.1,38.6,30.37,ENE,78,5.0,5.0,39,0.00,,,0.00,Wunderground v.1.15,2013-05-03 19:20:00,
2013-05-03 15:30:00,64.1,39.9,30.37,NE,55,4.0,4.0,41,0.00,,,0.00,Wunderground v.1.15,2013-05-03 19:30:00,
2013-05-03 15:40:00,64.3,39.4,30.36,East,96,5.0,7.0,40,0.00,,,0.00,Wunderground v.1.15,2013-05-03 19:40:00,
2013-05-03 15:50:00,64.3,39.4,30.36,ESE,111,4.0,4.0,40,0.00,,,0.00,Wunderground v.1.15,2013-05-03 19:50:00,
2013-05-03 16:00:00,64.8,39.2,30.36,East,90,4.0,12.0,39,0.00,,,-99.99,WeatherLink 6.0.2,2013-05-03 20:00:00,
2013-05-03 16:10:00,64.8,39.2,30.36,East,97,3.0,3.0,39,0.00,,,0.00,Wunderground v.1.15,2013-05-03 20:10:00,
2013-05-03 16:20:00,64.5,39.6,30.35,SSE,167,4.0,4.0,40,0.00,,,0.00,Wunderground v.1.15,2013-05-03 20:20:00,
2013-05-03 16:30:00,64.7,39.2,30.35,SE,135,3.0,9.0,39,0.00,,,-99.99,WeatherLink 6.0.2,2013-05-03 20:30:00,
2013-05-03 16:50:00,65.2,39.6,30.35,South,170,4.0,4.0,39,0.00,,,0.00,Wunderground v.1.15,2013-05-03 20:50:00,
2013-05-03 17:00:00,65.7,39.4,30.35,SSE,159,3.0,5.0,38,0.00,,,0.00,Wunderground v.1.15,2013-05-03 21:00:00,
2013-05-03 17:10:00,65.5,39.2,30.35,WSW,240,3.0,3.0,38,0.00,,,0.00,Wunderground v.1.15,2013-05-03 21:10:00,
2013-05-03 17:20:00,65.8,39.5,30.34,ESE,113,1.0,3.0,38,0.00,,,0.00,Wunderground v.1.15,2013-05-03 21:20:00,
2013-05-03 17:30:00,65.3,38.3,30.35,ENE,67,3.0,3.0,37,0.00,,,0.00,Wunderground v.1.15,2013-05-03 21:30:00,
2013-05-03 17:40:00,65.4,39.1,30.35,South,173,4.0,4.0,38,0.00,,,0.00,Wunderground v.1.15,2013-05-03 21:40:00,
2013-05-03 17:50:00,65.1,38.2,30.35,ESE,110,3.0,3.0,37,0.00,,,0.00,Wunderground v.1.15,2013-05-03 21:50:00,
2013-05-03 18:00:00,64.9,38.0,30.35,SE,135,3.0,3.0,37,0.00,,,0.00,Wunderground v.1.15,2013-05-03 22:00:00,
2013-05-03 18:10:00,64.3,40.7,30.35,South,172,4.0,6.0,42,0.00,,,0.00,Wunderground v.1.15,2013-05-03 22:10:00,
2013-05-03 18:20:00,64.1,40.5,30.35,ESE,120,3.0,4.0,42,0.00,,,0.00,Wunderground v.1.15,2013-05-03 22:20:00,
2013-05-03 18:30:00,63.6,40.7,30.34,SE,125,2.0,4.0,43,0.00,,,0.00,Wunderground v.1.15,2013-05-03 22:30:00,
2013-05-03 18:40:00,63.1,41.4,30.34,SSW,196,2.0,2.0,45,0.00,,,0.00,Wunderground v.1.15,2013-05-03 22:40:00,
2013-05-03 18:50:00,62.6,42.6,30.35,SE,127,2.0,2.0,48,0.00,,,0.00,Wunderground v.1.15,2013-05-03 22:50:00,
2013-05-03 19:00:00,61.8,43.5,30.35,SSW,195,2.0,4.0,51,0.00,,,0.00,Wunderground v.1.15,2013-05-03 23:00:00,
2013-05-03 19:10:00,61.2,43.9,30.35,South,179,2.0,2.0,53,0.00,,,0.00,Wunderground v.1.15,2013-05-03 23:10:00,
2013-05-03 19:20:00,60.5,44.2,30.35,South,171,2.0,2.0,55,0.00,,,0.00,Wunderground v.1.15,2013-05-03 23:20:00,
2013-05-03 19:30:00,59.8,44.5,30.35,SSW,210,2.0,2.0,57,0.00,,,0.00,Wunderground v.1.15,2013-05-03 23:30:00,
2013-05-03 19:40:00,59.2,44.4,30.35,SW,226,1.0,1.0,58,0.00,,,0.00,Wunderground v.1.15,2013-05-03 23:40:00,
2013-05-03 19:50:00,58.8,44.5,30.36,SW,223,1.0,1.0,59,0.00,,,0.00,Wunderground v.1.15,2013-05-03 23:50:00,
2013-05-03 20:00:00,58.1,44.7,30.36,South,172,1.0,3.0,61,0.00,,,0.00,Wunderground v.1.15,2013-05-04 00:00:00,
2013-05-03 20:10:00,57.6,44.7,30.36,South,190,1.0,2.0,62,0.00,,,0.00,Wunderground v.1.15,2013-05-04 00:10:00,
2013-05-03 20:20:00,57.1,44.6,30.36,SSW,205,1.0,1.0,63,0.00,,,0.00,Wunderground v.1.15,2013-05-04 00:20:00,
2013-05-03 20:30:00,56.8,44.7,30.37,SW,219,1.0,1.0,64,0.00,,,0.00,Wunderground v.1.15,2013-05-04 00:30:00,
2013-05-03 20:40:00,56.3,44.7,30.37,SW,231,2.0,2.0,65,0.00,,,0.00,Wunderground v.1.15,2013-05-04 00:40:00,
2013-05-03 20:50:00,55.7,44.9,30.37,SW,225,1.0,1.0,67,0.00,,,0.00,Wunderground v.1.15,2013-05-04 00:50:00,
2013-05-03 21:00:00,55.0,45.0,30.38,SW,225,1.0,5.0,69,0.00,,,-99.99,WeatherLink 6.0.2,2013-05-04 01:00:00,
2013-05-03 21:05:00,54.8,44.8,30.38,SW,235,0.0,1.0,69,0.00,,,0.00,Wunderground v.1.15,2013-05-04 01:05:00,
2013-05-03 21:15:00,54.6,45.0,30.38,SW,232,1.0,2.0,70,0.00,,,0.00,Wunderground v.1.15,2013-05-04 01:15:00,
2013-05-03 21:20:00,54.5,44.5,30.38,SW,223,1.0,2.0,69,0.00,,,0.00,Wunderground v.1.15,2013-05-04 01:20:00,
2013-05-03 21:30:00,54.4,44.8,30.38,SW,225,1.0,3.0,70,0.00,,,0.00,Wunderground v.1.15,2013-05-04 01:30:00,
2013-05-03 21:40:00,54.1,44.5,30.38,SW,228,1.0,1.0,70,0.00,,,0.00,Wunderground v.1.15,2013-05-04 01:40:00,
2013-05-03 21:50:00,53.9,44.7,30.38,SW,234,1.0,2.0,71,0.00,,,0.00,Wunderground v.1.15,2013-05-04 01:50:00,
2013-05-03 22:00:00,53.5,44.7,30.38,SW,225,1.0,4.0,72,0.00,,,-99.99,WeatherLink 6.0.2,2013-05-04 02:00:00,
2013-05-03 22:10:00,53.1,44.3,30.38,SW,223,0.0,0.0,72,0.00,,,0.00,Wunderground v.1.15,2013-05-04 02:10:00,
2013-05-03 22:20:00,52.7,44.6,30.38,SW,223,0.0,0.0,74,0.00,,,0.00,Wunderground v.1.15,2013-05-04 02:20:00,
2013-05-03 22:30:00,52.3,44.6,30.38,SW,225,0.0,2.0,75,0.00,,,-99.99,WeatherLink 6.0.2,2013-05-04 02:30:00,
2013-05-03 22:40:00,52.0,44.7,30.38,SSW,207,0.0,1.0,76,0.00,,,0.00,Wunderground v.1.15,2013-05-04 02:40:00,
2013-05-03 22:50:00,51.9,44.6,30.38,SSW,211,0.0,1.0,76,0.00,,,0.00,Wunderground v.1.15,2013-05-04 02:50:00,
2013-05-03 23:00:00,51.9,44.6,30.38,SW,215,0.0,1.0,76,0.00,,,0.00,Wunderground v.1.15,2013-05-04 03:00:00,
2013-05-03 23:10:00,51.7,44.7,30.38,SW,235,1.0,2.0,77,0.00,,,0.00,Wunderground v.1.15,2013-05-04 03:10:00,
2013-05-03 23:20:00,51.5,44.5,30.38,WSW,238,1.0,1.0,77,0.00,,,0.00,Wunderground v.1.15,2013-05-04 03:20:00,
2013-05-03 23:30:00,51.3,44.7,30.38,SW,234,0.0,0.0,78,0.00,,,0.00,Wunderground v.1.15,2013-05-04 03:30:00,
2013-05-03 23:40:00,50.9,44.6,30.38,SW,230,1.0,1.0,79,0.00,,,0.00,Wunderground v.1.15,2013-05-04 03:40:00,
2013-05-03 23:50:00,50.6,44.7,30.37,SW,229,0.0,1.0,80,0.00,,,0.00,Wunderground v.1.15,2013-05-04 03:50:00,